SM4IVE-5 Odensbacken SE current weather conditions

sailwx.info

Wind from 213 at 0 knots gusting 6

Air temperature 11.7° C
Dewpoint 9.9° C

Last reported at 2019-Sep-21 21:00 UTC.
Time now 2019-Sep-21 21:22 UTC

Location: N 59°08' E 015°32'.
View on Google Maps.

See reports from other nearby stations

  
Tides and Currents Weather Stations Pressure Air Temp Water Temp Dewpoint Dewpoint Depression Visibility Wind Speed Wind Dir Waves Ship Positions
date/time (UTC)wind fromknots sea level pressurealtimeterstation pressurevisibilityair tempwater tempwave heightnotes
2019-Sep-21 21:05 226 3 gusting 6 11.7
2019-Sep-21 21:00 213 0 gusting 6 11.7
2019-Sep-21 20:55 238 2 gusting 6 11.1
2019-Sep-21 20:50 257 0 gusting 4 11.7
2019-Sep-21 20:45 254 1 gusting 4 11.7
2019-Sep-21 20:40 248 11.7
2019-Sep-21 20:35 245 0 gusting 6 11.1
2019-Sep-21 20:30 212 11.1
2019-Sep-21 20:25 209 11.1
2019-Sep-21 20:20 206 11.1
2019-Sep-21 20:15 207 0 gusting 5 10.6
2019-Sep-21 20:10 202 10.6
2019-Sep-21 20:06 205 10.6
2019-Sep-21 20:00 205 10.0
2019-Sep-21 19:55 206 10.0
2019-Sep-21 19:50 192 10.0
2019-Sep-21 19:45 195 10.0
2019-Sep-21 19:40 199 10.0
2019-Sep-21 19:35 202 10.0
2019-Sep-21 19:30 203 10.0
2019-Sep-21 19:25 205 10.0
2019-Sep-21 19:20 217 10.0
2019-Sep-21 19:15 217 10.0
2019-Sep-21 19:10 217 10.6
2019-Sep-21 19:05 217 10.6
2019-Sep-21 19:00 217 10.6
2019-Sep-21 18:55 217 11.1
2019-Sep-21 18:50 217 11.1
2019-Sep-21 18:45 217 11.1
2019-Sep-21 18:40 217 11.1
2019-Sep-21 18:35 217 11.7
2019-Sep-21 18:30 217 12.2
2019-Sep-21 18:25 217 12.2
2019-Sep-21 18:20 217 12.8
2019-Sep-21 18:15 217 12.8
2019-Sep-21 18:10 217 12.8
2019-Sep-21 18:05 217 12.8
2019-Sep-21 18:00 217 12.8
2019-Sep-21 17:55 217 12.8
2019-Sep-21 17:50 218 12.8
2019-Sep-21 17:45 218 12.8
2019-Sep-21 17:40 219 13.3
2019-Sep-21 17:35 217 13.3
2019-Sep-21 17:30 219 13.9
2019-Sep-21 17:25 202 13.9
2019-Sep-21 17:20 199 14.4
2019-Sep-21 17:15 199 14.4
2019-Sep-21 17:10 199 15.0
2019-Sep-21 17:06 199 15.0
2019-Sep-21 17:00 199 15.0
2019-Sep-21 16:55 199 15.0
2019-Sep-21 16:50 199 15.6
2019-Sep-21 16:45 196 15.6
2019-Sep-21 16:40 228 16.1
2019-Sep-21 16:35 227 0 gusting 2 16.1
2019-Sep-21 16:30 227 0 gusting 2 16.7
2019-Sep-21 16:25 232 1 gusting 6 16.7
2019-Sep-21 16:20 234 0 gusting 6 17.2
2019-Sep-21 16:15 273 2 gusting 6 17.2
2019-Sep-21 16:10 243 2 gusting 6 17.8
2019-Sep-21 16:05 217 1 gusting 7 17.8
2019-Sep-21 16:00 238 2 gusting 7 17.8
2019-Sep-21 15:55 237 18.3
2019-Sep-21 15:50 233 1 gusting 6 18.3
2019-Sep-21 15:45 235 2 gusting 6 18.3
2019-Sep-21 15:40 228 1 gusting 4 18.9
2019-Sep-21 15:35 238 18.9
2019-Sep-21 15:30 256 0 gusting 5 18.9
2019-Sep-21 15:25 237 1 gusting 6 18.9
2019-Sep-21 15:20 254 1 gusting 6 18.9
2019-Sep-21 15:15 218 2 gusting 8 19.4
2019-Sep-21 15:10 293 4 gusting 8 19.4
2019-Sep-21 15:05 267 0 gusting 8 19.4
2019-Sep-21 15:00 257 5 gusting 10 19.4
2019-Sep-21 14:55 245 2 gusting 6 19.4
2019-Sep-21 14:50 205 3 gusting 6 19.4
2019-Sep-21 14:45 237 1 gusting 7 19.4
2019-Sep-21 14:40 236 3 gusting 7 19.4
2019-Sep-21 14:35 255 1 gusting 7 19.4
2019-Sep-21 14:30 276 2 gusting 7 19.4
2019-Sep-21 14:25 285 3 gusting 7 19.4
2019-Sep-21 14:20 271 4 gusting 7 19.4
2019-Sep-21 14:15 249 4 gusting 6 19.4
2019-Sep-21 14:10 242 0 gusting 8 19.4
2019-Sep-21 14:05 287 3 gusting 9 19.4
2019-Sep-21 14:00 294 3 gusting 8 19.4
2019-Sep-21 13:55 256 3 gusting 7 19.4
2019-Sep-21 13:50 221 1 gusting 6 19.4
2019-Sep-21 13:45 204 2 gusting 7 19.4
2019-Sep-21 13:40 288 3 gusting 6 19.4
2019-Sep-21 13:35 263 2 gusting 6 19.4
2019-Sep-21 13:30 223 3 gusting 7 19.4
2019-Sep-21 13:25 265 5 gusting 7 19.4
2019-Sep-21 13:20 288 2 gusting 7 19.4
2019-Sep-21 13:15 246 5 gusting 7 19.4
2019-Sep-21 13:10 237 2 gusting 8 19.4
2019-Sep-21 13:05 260 2 gusting 8 19.4
2019-Sep-21 13:00 300 5 gusting 8 19.4
2019-Sep-21 12:55 277 4 gusting 12 19.4
2019-Sep-21 12:50 300 4 gusting 12 19.4
2019-Sep-21 12:45 307 3 gusting 8 19.4
2019-Sep-21 12:40 252 3 gusting 8 19.4
2019-Sep-21 12:35 242 5 gusting 8 19.4
2019-Sep-21 12:30 246 3 gusting 11 19.4
2019-Sep-21 12:25 275 6 gusting 12 19.4
2019-Sep-21 12:20 283 6 gusting 11 19.4
2019-Sep-21 12:15 324 6 gusting 11 19.4
2019-Sep-21 12:10 306 5 gusting 11 19.4
2019-Sep-21 12:05 280 6 gusting 11 19.4
2019-Sep-21 12:00 326 3 gusting 8 19.4
2019-Sep-21 11:55 302 4 gusting 9 19.4
2019-Sep-21 11:50 297 4 gusting 10 19.4
2019-Sep-21 11:45 311 3 gusting 10 19.4
2019-Sep-21 11:40 256 4 gusting 9 19.4
2019-Sep-21 11:35 244 2 gusting 9 19.4
2019-Sep-21 11:30 276 2 gusting 9 19.4
2019-Sep-21 11:25 317 7 gusting 9 19.4
2019-Sep-21 11:20 311 3 gusting 7 19.4
2019-Sep-21 11:15 300 3 gusting 10 19.4
2019-Sep-21 11:10 290 6 gusting 10 19.4
2019-Sep-21 11:06 303 4 gusting 8 19.4
2019-Sep-21 11:00 320 2 gusting 6 19.4
2019-Sep-21 10:55 290 2 gusting 9 19.4
2019-Sep-21 10:50 238 3 gusting 9 19.4
2019-Sep-21 10:45 240 4 gusting 9 19.4
2019-Sep-21 10:40 325 6 gusting 9 19.4
2019-Sep-21 10:35 318 4 gusting 9 20.0
2019-Sep-21 10:30 264 6 gusting 9 20.0
2019-Sep-21 10:25 267 5 gusting 9 20.0
2019-Sep-21 10:20 288 4 gusting 7 20.0
2019-Sep-21 10:15 298 2 gusting 7 19.4
2019-Sep-21 10:10 267 4 gusting 8 19.4
2019-Sep-21 10:06 295 3 gusting 8 19.4
2019-Sep-21 10:00 288 3 gusting 9 20.0
2019-Sep-21 09:55 281 3 gusting 9 20.0
2019-Sep-21 09:50 296 2 gusting 6 20.0
2019-Sep-21 09:45 263 19.4
2019-Sep-21 09:40 241 3 gusting 7 19.4
2019-Sep-21 09:35 299 4 gusting 7 19.4
2019-Sep-21 09:30 277 3 gusting 7 19.4
2019-Sep-21 09:25 243 1 gusting 7 18.9
2019-Sep-21 09:20 222 1 gusting 6 18.9
2019-Sep-21 09:15 285 1 gusting 7 18.9
2019-Sep-21 09:10 252 0 gusting 7 18.9
2019-Sep-21 09:05 286 2 gusting 7 18.3
2019-Sep-21 09:00 284 1 gusting 6 18.3
2019-Sep-21 08:55 295 3 gusting 6 18.3
2019-Sep-21 08:50 236 0 gusting 6 18.3
2019-Sep-21 08:45 203 4 gusting 8 17.8
2019-Sep-21 08:40 243 5 gusting 8 17.8
2019-Sep-21 08:35 213 3 gusting 6 17.8
2019-Sep-21 08:30 284 3 gusting 6 17.2
2019-Sep-21 08:25 296 0 gusting 6 17.2
2019-Sep-21 08:20 286 1 gusting 8 16.7
2019-Sep-21 08:15 272 2 gusting 8 16.7
2019-Sep-21 08:10 284 2 gusting 9 16.7
2019-Sep-21 08:05 294 3 gusting 9 16.7
2019-Sep-21 08:00 259 6 gusting 8 16.7
2019-Sep-21 07:55 253 3 gusting 6 16.7
2019-Sep-21 07:50 259 2 gusting 8 16.7
2019-Sep-21 07:45 248 3 gusting 8 16.7
2019-Sep-21 07:40 263 3 gusting 6 16.1
2019-Sep-21 07:35 237 0 gusting 7 16.1
2019-Sep-21 07:30 244 1 gusting 7 15.6
2019-Sep-21 07:25 276 1 gusting 6 15.6
2019-Sep-21 07:20 234 15.0
2019-Sep-21 07:15 240 0 gusting 6 15.0
2019-Sep-21 07:10 280 1 gusting 6 15.0
2019-Sep-21 07:06 275 1 gusting 6 14.4
2019-Sep-21 07:00 281 3 gusting 7 14.4
2019-Sep-21 06:55 292 3 gusting 7 14.4
2019-Sep-21 06:50 287 3 gusting 7 13.9
2019-Sep-21 06:45 304 3 gusting 7 13.9
2019-Sep-21 06:40 267 3 gusting 7 13.3
2019-Sep-21 06:35 251 13.3
2019-Sep-21 06:30 268 1 gusting 6 13.3
2019-Sep-21 06:25 280 0 gusting 4 12.8
2019-Sep-21 06:20 253 12.8
2019-Sep-21 06:15 213 1 gusting 6 12.2
2019-Sep-21 06:10 286 0 gusting 6 12.2
2019-Sep-21 06:05 257 0 gusting 6 11.7
2019-Sep-21 06:00 246 1 gusting 6 11.7
2019-Sep-21 05:55 281 0 gusting 8 11.1
2019-Sep-21 05:50 240 3 gusting 6 11.1
2019-Sep-21 05:45 253 2 gusting 7 10.6
2019-Sep-21 05:40 236 1 gusting 4 10.6
2019-Sep-21 05:35 248 0 gusting 6 10.6
2019-Sep-21 05:30 251 0 gusting 6 10.0
2019-Sep-21 05:25 225 1 gusting 6 10.0
2019-Sep-21 05:20 250 10.0
2019-Sep-21 05:15 269 1 gusting 6 10.0
2019-Sep-21 05:10 288 1 gusting 3 10.0
2019-Sep-21 05:05 269 10.0
2019-Sep-21 05:00 251 2 gusting 6 10.0
2019-Sep-21 04:55 249 10.0
2019-Sep-21 04:50 266 10.0
2019-Sep-21 04:45 241 10.0
2019-Sep-21 04:40 267 10.0
2019-Sep-21 04:35 233 10.6
2019-Sep-21 04:30 254 10.6
2019-Sep-21 04:25 254 2 gusting 6 10.6
2019-Sep-21 04:20 236 1 gusting 6 10.6
2019-Sep-21 04:15 261 0 gusting 6 10.6
2019-Sep-21 04:10 211 2 gusting 6 10.6
2019-Sep-21 04:06 241 0 gusting 5 10.6
2019-Sep-21 04:00 254 1 gusting 5 10.6
2019-Sep-21 03:55 257 10.6
2019-Sep-21 03:50 254 1 gusting 6 10.6
2019-Sep-21 03:45 222 0 gusting 6 10.6
2019-Sep-21 03:40 278 1 gusting 7 10.6
2019-Sep-21 03:35 250 0 gusting 7 10.6
2019-Sep-21 03:30 306 3 gusting 7 10.6
2019-Sep-21 03:25 242 2 gusting 8 10.6
2019-Sep-21 03:20 268 2 gusting 7 10.6
2019-Sep-21 03:15 293 0 gusting 7 10.6
2019-Sep-21 03:10 246 0 gusting 9 10.6
2019-Sep-21 03:05 273 2 gusting 6 10.6
2019-Sep-21 03:00 261 0 gusting 8 10.6
2019-Sep-21 02:55 244 3 gusting 10 10.6
2019-Sep-21 02:50 257 3 gusting 10 10.6
2019-Sep-21 02:45 214 1 gusting 7 10.6
2019-Sep-21 02:40 259 1 gusting 8 10.6
2019-Sep-21 02:35 248 1 gusting 6 10.6
2019-Sep-21 02:30 214 2 gusting 6 10.6
2019-Sep-21 02:25 218 1 gusting 6 10.6
2019-Sep-21 02:20 234 0 gusting 6 10.6
2019-Sep-21 02:15 229 0 gusting 5 10.6
2019-Sep-21 02:10 222 11.1
2019-Sep-21 02:06 240 2 gusting 8 11.1
2019-Sep-21 02:00 219 3 gusting 8 11.1
2019-Sep-21 01:55 218 11.1
2019-Sep-21 01:50 253 2 gusting 7 11.1
2019-Sep-21 01:45 228 11.1
2019-Sep-21 01:40 229 2 gusting 11 11.1
2019-Sep-21 01:35 248 3 gusting 11 11.7
2019-Sep-21 01:30 240 3 gusting 7 11.7
2019-Sep-21 01:25 281 3 gusting 7 11.7
2019-Sep-21 01:20 222 2 gusting 8 11.7
2019-Sep-21 01:15 269 1 gusting 8 11.7
2019-Sep-21 01:10 240 1 gusting 8 12.2
2019-Sep-21 01:05 227 0 gusting 7 12.2
2019-Sep-21 01:00 219 3 gusting 8 12.2
2019-Sep-21 00:55 274 2 gusting 8 12.2
2019-Sep-21 00:50 248 2 gusting 7 12.2
2019-Sep-21 00:45 256 2 gusting 6 12.2
2019-Sep-21 00:40 259 12.2
2019-Sep-21 00:35 241 12.2
2019-Sep-21 00:30 243 1 gusting 5 12.2
2019-Sep-21 00:25 258 12.2
2019-Sep-21 00:20 242 2 gusting 8 12.2
2019-Sep-21 00:15 252 0 gusting 6 12.2
2019-Sep-21 00:10 236 1 gusting 6 12.2
2019-Sep-21 00:05 238 0 gusting 6 12.2
2019-Sep-21 00:00 248 0 gusting 4 12.2
2019-Sep-20 23:55 219 1 gusting 6 12.2
2019-Sep-20 23:50 232 0 gusting 6 12.2
2019-Sep-20 23:45 246 2 gusting 6 12.2
2019-Sep-20 23:40 225 2 gusting 8 12.2
2019-Sep-20 23:35 254 3 gusting 8 12.2
2019-Sep-20 23:30 264 2 gusting 7 12.2
2019-Sep-20 23:25 268 2 gusting 9 12.8
2019-Sep-20 23:20 250 2 gusting 9 12.8
2019-Sep-20 23:15 236 2 gusting 8 12.8
2019-Sep-20 23:10 252 2 gusting 6 12.8
2019-Sep-20 23:05 238 2 gusting 7 12.8
2019-Sep-20 23:00 220 2 gusting 9 12.8
2019-Sep-20 22:55 238 2 gusting 13 12.8
2019-Sep-20 22:50 252 3 gusting 11 12.8
2019-Sep-20 22:45 220 1 gusting 11 12.8
2019-Sep-20 22:40 268 3 gusting 7 12.8
2019-Sep-20 22:35 242 2 gusting 8 12.8
2019-Sep-20 22:30 248 2 gusting 7 12.8
2019-Sep-20 22:25 205 2 gusting 7 12.8
2019-Sep-20 22:20 258 2 gusting 7 12.8
2019-Sep-20 22:15 248 4 gusting 7 12.8
2019-Sep-20 22:10 244 2 gusting 8 12.8
2019-Sep-20 22:05 210 3 gusting 8 12.8
2019-Sep-20 22:00 240 4 gusting 7 12.8
2019-Sep-20 21:55 250 3 gusting 8 12.8
2019-Sep-20 21:50 200 2 gusting 8 12.8
2019-Sep-20 21:45 239 1 gusting 8 12.8
2019-Sep-20 21:40 227 2 gusting 9 12.8
2019-Sep-20 21:35 209 3 gusting 9 12.8
2019-Sep-20 21:30 251 3 gusting 7 12.8
2019-Sep-20 21:25 192 3 gusting 8 12.8
2019-Sep-20 21:20 201 2 gusting 8 12.8
2019-Sep-20 21:15 200 4 gusting 13 12.8
2019-Sep-20 21:10 252 3 gusting 13 12.8
2019-Sep-20 21:06 230 4 gusting 13 12.8
2019-Sep-20 21:00 222 4 gusting 8 12.8
2019-Sep-20 20:55 213 3 gusting 8 12.8
2019-Sep-20 20:50 225 5 gusting 8 12.8
2019-Sep-20 20:45 264 6 gusting 10 12.8
2019-Sep-20 20:40 265 4 gusting 10 12.2
2019-Sep-20 20:35 233 2 gusting 10 12.2
2019-Sep-20 20:30 228 2 gusting 7 12.2
2019-Sep-20 20:25 229 3 gusting 7 12.2
2019-Sep-20 20:20 234 1 gusting 7 11.7
2019-Sep-20 20:15 246 0 gusting 7 11.7
2019-Sep-20 20:10 209 3 gusting 7 11.7
2019-Sep-20 20:05 222 2 gusting 6 11.7
2019-Sep-20 20:00 267 1 gusting 5 11.7
2019-Sep-20 19:55 210 0 gusting 5 11.7
2019-Sep-20 19:50 200 0 gusting 4 11.7
2019-Sep-20 19:45 226 0 gusting 6 11.7
2019-Sep-20 19:40 234 1 gusting 5 11.7
2019-Sep-20 19:35 215 0 gusting 3 11.7
2019-Sep-20 19:30 205 11.7
2019-Sep-20 19:25 202 0 gusting 6 11.7
2019-Sep-20 19:20 210 0 gusting 4 11.7
2019-Sep-20 19:15 213 0 gusting 3 11.1
2019-Sep-20 19:10 213 11.1
2019-Sep-20 19:05 203 11.1
2019-Sep-20 19:00 206 11.1
2019-Sep-20 18:55 212 0 gusting 3 10.6
2019-Sep-20 18:50 199 10.6
2019-Sep-20 18:45 203 0 gusting 3 10.0
2019-Sep-20 18:40 209 10.6
2019-Sep-20 18:35 209 10.6
2019-Sep-20 18:30 209 10.6
2019-Sep-20 18:25 220 10.6
2019-Sep-20 18:20 219 10.6
2019-Sep-20 18:15 221 10.6
2019-Sep-20 18:10 221 10.6
2019-Sep-20 18:06 221 10.6
2019-Sep-20 18:00 222 11.1
2019-Sep-20 17:55 222 11.1
2019-Sep-20 17:50 222 11.1
2019-Sep-20 17:45 222 11.1
2019-Sep-20 17:40 222 11.1
2019-Sep-20 17:35 222 11.1
2019-Sep-20 17:30 222 11.1
2019-Sep-20 17:25 222 11.7
2019-Sep-20 17:20 222 11.7
2019-Sep-20 17:15 222 11.7
2019-Sep-20 17:10 222 12.2
2019-Sep-20 17:05 222 12.2
2019-Sep-20 17:00 222 12.2
2019-Sep-20 16:55 222 12.8
2019-Sep-20 16:50 222 12.8
2019-Sep-20 16:45 223 12.8
2019-Sep-20 16:40 223 13.3
2019-Sep-20 16:35 223 0 gusting 6 13.3
2019-Sep-20 16:30 221 1 gusting 6 13.3
2019-Sep-20 16:25 209 1 gusting 6 13.3
2019-Sep-20 16:20 240 1 gusting 6 13.3
2019-Sep-20 16:15 247 0 gusting 5 13.3
2019-Sep-20 16:10 217 1 gusting 6 13.3
2019-Sep-20 16:06 241 0 gusting 4 13.3
2019-Sep-20 16:00 242 13.3
2019-Sep-20 15:55 246 0 gusting 5 13.3
2019-Sep-20 15:50 240 0 gusting 3 13.3
2019-Sep-20 15:45 211 0 gusting 4 13.3
2019-Sep-20 15:40 232 13.3
2019-Sep-20 15:35 252 1 gusting 3 13.3
2019-Sep-20 15:30 218 13.3
2019-Sep-20 15:25 226 13.3
2019-Sep-20 15:20 223 13.3
2019-Sep-20 15:15 221 13.3
2019-Sep-20 15:10 216 1 gusting 6 13.3
2019-Sep-20 15:05 235 2 gusting 6 13.3
2019-Sep-20 15:00 235 1 gusting 8 13.9
2019-Sep-20 14:55 221 4 gusting 8 13.9
2019-Sep-20 14:50 218 2 gusting 9 13.9
2019-Sep-20 14:45 221 4 gusting 9 13.9
2019-Sep-20 14:40 252 4 gusting 6 13.9
2019-Sep-20 14:35 246 0 gusting 4 13.9
2019-Sep-20 14:30 229 13.9
2019-Sep-20 14:25 254 0 gusting 4 13.9
2019-Sep-20 14:20 213 1 gusting 4 13.9
2019-Sep-20 14:15 234 1 gusting 6 13.9
2019-Sep-20 14:10 238 1 gusting 6 13.9
2019-Sep-20 14:05 253 13.9
2019-Sep-20 14:00 224 13.9
2019-Sep-20 13:55 223 13.9
2019-Sep-20 13:50 232 13.9
2019-Sep-20 13:45 232 0 gusting 3 13.9
2019-Sep-20 13:40 229 0 gusting 3 13.9
2019-Sep-20 13:35 228 1 gusting 3 13.9
2019-Sep-20 13:30 221 0 gusting 3 13.9
2019-Sep-20 13:25 235 13.9
2019-Sep-20 13:20 225 0 gusting 5 13.9
2019-Sep-20 13:15 234 0 gusting 6 13.9
2019-Sep-20 13:10 233 0 gusting 7 13.9
2019-Sep-20 13:06 286 2 gusting 7 13.9
2019-Sep-20 13:00 240 2 gusting 7 13.9
2019-Sep-20 12:55 256 2 gusting 7 13.9
2019-Sep-20 12:50 252 1 gusting 8 13.9
2019-Sep-20 12:45 254 5 gusting 8 13.9
2019-Sep-20 12:40 234 2 gusting 6 13.9
2019-Sep-20 12:35 203 1 gusting 6 14.4
2019-Sep-20 12:30 266 1 gusting 6 14.4
2019-Sep-20 12:25 251 1 gusting 10 14.4
2019-Sep-20 12:20 218 5 gusting 13 14.4
2019-Sep-20 12:15 253 5 gusting 13 15.0
2019-Sep-20 12:10 218 5 gusting 7 15.0
2019-Sep-20 12:06 215 4 gusting 8 15.0
2019-Sep-20 12:00 247 3 gusting 8 15.0
2019-Sep-20 11:55 244 4 gusting 8 15.0
2019-Sep-20 11:50 212 3 gusting 10 15.0
2019-Sep-20 11:45 215 5 gusting 10 15.0
2019-Sep-20 11:40 262 5 gusting 9 15.0
2019-Sep-20 11:35 222 4 gusting 8 14.4
2019-Sep-20 11:30 198 2 gusting 10 14.4
2019-Sep-20 11:25 205 5 gusting 13 15.0
2019-Sep-20 11:20 205 5 gusting 13 15.0
2019-Sep-20 11:15 211 2 gusting 12 15.0
2019-Sep-20 11:10 242 7 gusting 12 14.4
2019-Sep-20 11:06 208 4 gusting 10 14.4
2019-Sep-20 11:00 278 5 gusting 10 14.4
2019-Sep-20 10:55 259 5 gusting 8 14.4
2019-Sep-20 10:50 209 4 gusting 9 14.4
2019-Sep-20 10:45 218 6 gusting 9 13.9
2019-Sep-20 10:40 195 2 gusting 6 13.9
2019-Sep-20 10:35 266 1 gusting 8 13.9
2019-Sep-20 10:30 249 4 gusting 8 13.9
2019-Sep-20 10:25 212 2 gusting 9 14.4
2019-Sep-20 10:20 205 1 gusting 9 14.4
2019-Sep-20 10:15 234 3 gusting 8 14.4
2019-Sep-20 10:10 215 2 gusting 7 13.9
2019-Sep-20 10:05 261 2 gusting 7 13.3
2019-Sep-20 10:00 211 2 gusting 6 12.8
2019-Sep-20 09:55 240 0 gusting 6 12.2
2019-Sep-20 09:50 222 2 gusting 6 12.2
2019-Sep-20 09:45 210 2 gusting 6 11.7
2019-Sep-20 09:40 196 11.7
2019-Sep-20 09:35 225 2 gusting 6 11.7
2019-Sep-20 09:30 211 11.7
2019-Sep-20 09:25 208 0 gusting 6 11.7
2019-Sep-20 09:20 233 2 gusting 5 11.7
2019-Sep-20 09:15 242 11.7
2019-Sep-20 09:10 235 11.1
2019-Sep-20 09:05 229 11.1
2019-Sep-20 09:00 223 2 gusting 6 11.1
2019-Sep-20 08:55 215 1 gusting 4 10.6
2019-Sep-20 08:50 205 0 gusting 4 10.6
2019-Sep-20 08:45 179 10.6
2019-Sep-20 08:40 198 0 gusting 4 10.6
2019-Sep-20 08:35 212 10.6
2019-Sep-20 08:30 199 10.0
2019-Sep-20 08:25 200 0 gusting 3 10.0
2019-Sep-20 08:20 213 0 gusting 3 10.0
2019-Sep-20 08:15 194 1 gusting 4 10.0
2019-Sep-20 08:10 209 1 gusting 4 9.4
2019-Sep-20 08:06 211 0 gusting 4 9.4
2019-Sep-20 08:00 203 0 gusting 2 9.4
2019-Sep-20 07:55 204 0 gusting 4 9.4
2019-Sep-20 07:50 205 0 gusting 3 9.4
2019-Sep-20 07:45 207 0 gusting 2 9.4
2019-Sep-20 07:40 207 9.4
2019-Sep-20 07:35 206 9.4
2019-Sep-20 07:30 207 9.4
2019-Sep-20 07:25 207 9.4
2019-Sep-20 07:20 206 9.4
2019-Sep-20 07:15 207 9.4
2019-Sep-20 07:10 208 9.4
2019-Sep-20 07:05 207 9.4
2019-Sep-20 07:00 208 9.4
2019-Sep-20 06:55 207 8.9
2019-Sep-20 06:50 208 8.9
2019-Sep-20 06:45 211 8.9
2019-Sep-20 06:40 225 8.3
2019-Sep-20 06:35 225 8.3
2019-Sep-20 06:30 225 7.8
2019-Sep-20 06:25 225 7.8
2019-Sep-20 06:20 225 7.2
2019-Sep-20 06:15 225 6.7
2019-Sep-20 06:10 225 6.1
2019-Sep-20 06:05 225 5.6
2019-Sep-20 06:00 225 5.6
2019-Sep-20 05:55 225 5.0
2019-Sep-20 05:50 225 5.0
2019-Sep-20 05:45 225 4.4
2019-Sep-20 05:40 225 3.9
2019-Sep-20 05:35 225 3.9
2019-Sep-20 05:30 225 3.9
2019-Sep-20 05:25 225 3.3
2019-Sep-20 05:20 225 3.3
2019-Sep-20 05:15 225 3.3
2019-Sep-20 05:10 225 3.3
2019-Sep-20 05:05 225 2.8
2019-Sep-20 05:00 225 2.8
2019-Sep-20 04:55 225 2.8
2019-Sep-20 04:50 225 2.8
2019-Sep-20 04:45 227 2.8
2019-Sep-20 04:40 227 2.2
2019-Sep-20 04:35 227 2.2
2019-Sep-20 04:30 228 2.2
2019-Sep-20 04:25 228 2.2
2019-Sep-20 04:20 228 2.2
2019-Sep-20 04:15 228 2.2
2019-Sep-20 04:10 228 2.2
2019-Sep-20 04:05 228 2.2
2019-Sep-20 04:00 227 2.2
2019-Sep-20 03:55 228 2.8
2019-Sep-20 03:50 229 2.8
2019-Sep-20 03:45 229 2.8
2019-Sep-20 03:40 229 2.8
2019-Sep-20 03:35 229 2.8
2019-Sep-20 03:30 229 3.3
2019-Sep-20 03:25 229 3.3
2019-Sep-20 03:20 229 3.3
2019-Sep-20 03:15 229 3.3
2019-Sep-20 03:10 229 3.3
2019-Sep-20 03:06 229 3.9
2019-Sep-20 03:00 229 3.9
2019-Sep-20 02:55 229 3.9
2019-Sep-20 02:50 229 3.9
2019-Sep-20 02:45 229 3.9
2019-Sep-20 02:40 229 3.9
2019-Sep-20 02:35 229 3.9
2019-Sep-20 02:30 229 3.9
2019-Sep-20 02:25 229 3.9
2019-Sep-20 02:20 229 3.9
2019-Sep-20 02:15 227 3.9
2019-Sep-20 02:10 226 3.9
2019-Sep-20 02:05 227 3.9
2019-Sep-20 02:00 227 3.9
2019-Sep-20 01:55 226 3.9
2019-Sep-20 01:50 226 3.9
2019-Sep-20 01:45 226 3.9
2019-Sep-20 01:40 227 4.4
2019-Sep-20 01:35 227 4.4
2019-Sep-20 01:30 226 4.4
2019-Sep-20 01:25 227 4.4
2019-Sep-20 01:20 227 4.4
2019-Sep-20 01:15 227 4.4
2019-Sep-20 01:10 227 4.4
2019-Sep-20 01:05 227 4.4
2019-Sep-20 01:00 227 4.4
2019-Sep-20 00:55 227 5.0
2019-Sep-20 00:50 227 5.0
2019-Sep-20 00:45 226 5.0
2019-Sep-20 00:40 226 5.0
2019-Sep-20 00:35 226 5.0
2019-Sep-20 00:30 226 5.0
2019-Sep-20 00:25 226 5.0
2019-Sep-20 00:20 227 5.0
2019-Sep-20 00:15 227 5.0
2019-Sep-20 00:10 226 5.0
2019-Sep-20 00:05 226 5.0
2019-Sep-20 00:00 227 5.0
2019-Sep-19 23:55 227 5.0
2019-Sep-19 23:50 227 5.0
2019-Sep-19 23:45 226 5.0
2019-Sep-19 23:40 226 5.0
2019-Sep-19 23:35 227 5.0
2019-Sep-19 23:30 226 5.0
2019-Sep-19 23:25 226 5.0
2019-Sep-19 23:20 227 5.0
2019-Sep-19 23:15 227 5.0
2019-Sep-19 23:10 227 5.0
2019-Sep-19 23:05 226 5.0
2019-Sep-19 23:00 227 5.0
2019-Sep-19 22:55 227 5.0
2019-Sep-19 22:50 227 4.4
2019-Sep-19 22:45 227 4.4
2019-Sep-19 22:40 227 4.4
2019-Sep-19 22:35 227 4.4
2019-Sep-19 22:30 227 4.4
2019-Sep-19 22:25 226 4.4
2019-Sep-19 22:20 226 4.4
2019-Sep-19 22:15 226 4.4
2019-Sep-19 22:10 227 4.4
2019-Sep-19 22:05 226 4.4
2019-Sep-19 22:00 226 4.4
2019-Sep-19 21:55 227 4.4
2019-Sep-19 21:50 226 4.4
2019-Sep-19 21:45 226 4.4
2019-Sep-19 21:40 226 4.4
2019-Sep-19 21:35 225 4.4
2019-Sep-19 21:30 242 4.4
2019-Sep-19 21:25 240 4.4
2019-Sep-19 21:20 240 4.4
2019-Sep-19 21:15 250 4.4
2019-Sep-19 21:10 230 4.4
2019-Sep-19 21:05 231 4.4
2019-Sep-19 21:00 231 4.4